+ View the NASA Portal
+ Center for Near-Earth Object Studies
IMPORTANT:
The SSD Announcement email list is now available. Major changes are coming in the near future, including possible hostname and/or URL changes. To be notified of such changes, subscribe to this email list.
Please visit
this page
for more details.
Don't show this message again
JPL Small-Body Database Browser
Search:
[
help
]
344220 (2001 RV83)
Classification:
Main-belt Asteroid
SPK-ID:
2344220
[
Ephemeris
|
Orbit Diagram
|
Orbital Elements
|
Mission Design
|
Physical Parameters
|
Discovery Circumstances
]
[ show orbit diagram ]
Orbital Elements at Epoch 2458600.5 (2019-Apr-27.0) TDB
Reference:
JPL 9
(heliocentric ecliptic J2000)
Element
Value
Uncertainty (1-sigma)
Units
e
.2122362855268844
8.6048e-08
a
2.415310878420563
1.2372e-08
au
q
1.902694269191906
2.1167e-07
au
i
4.325868299101638
8.8112e-06
deg
node
186.3639515983988
7.353e-05
deg
peri
168.8418375294989
7.5194e-05
deg
M
247.5842496108538
1.4536e-05
deg
t
p
2459028.636886049624
(2020-Jun-28.13688605)
5.7179e-05
TDB
period
1371.064805815199
3.75
1.0535e-05
2.884e-08
d
yr
n
.2625696454851043
2.0175e-09
deg/d
Q
2.92792748764922
1.4998e-08
au
Orbit Determination Parameters
# obs. used (total)
188
data-arc span
6487 days (17.76 yr)
first obs. used
2001-08-23
last obs. used
2019-05-28
planetary ephem.
DE431
SB-pert. ephem.
SB431-N16
condition code
0
norm. resid. RMS
.63333
source
ORB
producer
Otto Matic
solution date
2019-Sep-24 06:29:23
Additional Information
Earth MOID
= .8975 au
Jupiter MOID
= 2.51725 au
T_jup
= 3.482
[ show covariance matrix ]
[
Ephemeris
|
Orbit Diagram
|
Orbital Elements
|
Mission Design
|
Physical Parameters
|
Discovery Circumstances
]
Physical Parameter Table
Parameter
Symbol
Value
Units
Sigma
Reference
Notes
absolute magnitude
H
17.4
n/a
MPO440550
344220 (2001 RV83)
Discovered 2001-Sep-11 by LONEOS at Anderson Mesa
Reference:
20121128/Numbers.arc
Last Updated:
2012-12-03
Alternate Designations
2001 RV83
= 2001 RU98
[
Ephemeris
|
Orbit Diagram
|
Orbital Elements
|
Mission Design
|
Physical Parameters
|
Discovery Circumstances
]
2019-Dec-09 08:07 UT
(server date/time)
Site Manager:
Ryan S. Park
Webmaster
:
Alan B. Chamberlin